RH
52 54 56 55 53 52 50 49 46 58 53 43 38 35 30 24 17 12 9 7 6 6 5 4 3 3 3 3 3 2 2 2 3 3 2 2 2 3 2 3 2 3 4
50 52 53 51 47 51 54 60 63 47 50 45 38 28 18 14 10 8 7 6 6 5 4 4 3 3 3 3 3 3 3 3 3 3 3 2 2 3 3 2 2 2 3
49 47 47 52 58 60 68 68 63 57 51 39 30 18 14 10 8 7 6 6 4 4 4 3 3 3 3 3 3 3 3 3 3 3 3 3 3 3 3 3 2 3 3
47 52 58 60 64 78 78 79 73 58 42 31 18 13 9 9 7 7 6 4 4 4 4 4 4 4 4 4 3 3 3 3 3 3 3 3 3 3 3 3 3 3 3
60 65 68 80 85 86 88 86 73 49 29 17 13 10 9 8 7 6 5 4 4 4 5 5 4 4 4 4 4 3 3 3 3 3 3 3 3 3 3 3 3 4 4
79 80 83 90 94 98 99 79 57 32 17 14 11 10 9 7 6 5 5 4 4 5 5 4 4 3 3 3 3 3 3 3 2 2 2 3 3 3 3 3 4 4 4
86 90 97 98 100 98 79 53 35 20 15 10 10 9 8 6 5 5 4 4 5 5 5 5 4 4 4 3 3 3 3 3 3 2 2 2 3 3 3 3 3 4 4
94 100 99 100 100 80 60 39 24 15 11 10 9 8 6 6 6 5 5 5 5 5 5 4 4 3 3 3 2 2 2 2 2 3 3 3 2 3 3 3 4 4 4
100 100 100 100 85 66 38 24 15 11 10 10 8 6 6 6 5 5 6 6 5 4 4 3 3 3 3 3 3 3 2 2 2 2 3 3 3 3 3 3 4 4 4
91 99 96 79 61 43 20 15 12 11 10 8 6 6 6 5 5 6 7 6 4 4 4 3 3 4 4 4 4 4 3 3 2 2 3 3 3 3 3 3 4 4 4
99 85 71 60 40 24 16 12 10 10 8 6 6 6 6 5 6 7 6 5 4 4 4 3 4 4 4 4 5 4 3 3 3 2 2 2 3 4 4 4 4 5 5
78 69 47 38 23 17 13 10 10 8 6 6 6 5 5 6 7 6 6 5 5 5 4 4 4 4 5 5 5 4 4 3 3 3 3 3 4 4 4 5 5 5 6
65 44 34 23 17 14 10 10 9 7 6 5 5 5 5 6 7 6 5 5 6 6 6 5 4 5 5 6 5 4 4 4 3 3 4 4 4 5 5 5 5 6 6
32 30 24 17 15 10 10 9 7 6 5 5 5 5 6 7 6 6 5 6 6 6 6 6 5 5 5 6 6 4 4 4 3 3 4 5 5 5 6 6 6 6 7
25 20 17 15 11 10 10 7 6 5 5 5 6 6 7 6 6 5 6 6 6 6 6 5 4 4 5 5 6 5 4 4 4 3 4 5 6 7 7 7 7 8 8
20 17 14 11 11 10 8 6 6 5 6 6 6 6 7 6 5 6 7 6 6 6 6 5 4 4 5 5 6 6 5 5 5 4 4 5 7 8 8 8 8 8 8
17 15 12 11 11 8 6 6 5 6 6 6 6 6 6 6 6 7 7 7 7 6 6 5 4 5 5 5 5 6 6 5 6 5 4 5 7 8 9 9 9 9 9
15 12 11 11 9 6 6 4 5 6 6 6 7 6 6 6 7 8 7 7 8 7 7 6 5 5 4 5 5 5 6 6 6 6 6 5 6 7 9 10 10 10 10
12 11 11 10 6 6 5 5 6 6 7 7 7 7 6 6 8 8 8 8 8 8 7 6 5 4 4 4 5 5 5 6 5 6 7 7 6 6 8 9 10 11 12
11 10 9 6 6 5 4 6 6 6 7 7 6 6 6 8 8 8 8 9 9 8 6 5 5 5 4 4 5 5 5 5 6 6 6 7 7 7 6 7 9 11 12
10 9 7 6 6 4 6 6 6 6 6 6 6 6 6 8 8 8 9 8 6 6 5 5 4 4 4 4 5 5 5 5 5 6 6 6 7 8 8 8 7 8 10
9 8 6 6 5 5 6 6 6 6 6 6 6 6 8 9 8 9 8 6 5 5 5 5 5 4 4 4 4 5 5 5 5 5 5 6 6 6 7 8 8 8 7
8 6 6 5 5 6 6 6 6 6 6 5 5 7 9 9 9 9 6 5 5 5 5 5 5 4 4 4 5 5 5 5 5 5 5 5 5 5 6 6 7 8 9
6 5 5 5 6 6 6 6 6 6 5 5 6 7 10 10 10 8 6 6 5 5 5 5 5 5 4 4 5 5 5 4 4 5 5 5 5 5 5 5 6 6 6
5 5 5 6 6 5 5 6 6 6 5 5 6 8 10 9 9 7 6 5 5 5 5 5 5 5 5 4 4 4 4 4 4 4 4 5 4 4 5 5 5 5 6
5 5 5 5 5 4 5 5 5 5 5 5 6 8 9 9 7 6 6 5 5 5 5 5 4 5 5 5 4 4 4 4 4 4 3 3 4 4 4 4 4 4 5
Wind_Speed
67 69 71 74 80 85 91 97 101 105 109 113 115 115 117 116 115 111 107 105 103 98 93 90 85 81 79 76 73 70 68 64 61 67 68 69 68 68 68 72 75 79 84
66 68 73 79 86 92 98 103 109 112 116 117 116 117 117 113 108 102 99 94 91 89 86 82 79 76 73 70 67 67 65 62 57 58 66 67 63 64 66 65 68 71 75
71 76 83 89 96 102 107 113 118 119 120 119 119 118 114 107 99 93 90 87 84 81 78 75 72 69 67 64 62 60 58 56 53 51 59 62 61 60 61 63 61 67 69
80 86 91 98 105 108 116 121 122 125 123 123 120 113 105 100 92 88 84 81 78 74 71 69 66 63 61 59 58 57 55 53 51 49 52 57 57 56 56 59 56 60 66
90 95 101 107 112 117 123 124 128 127 125 122 116 108 99 93 89 86 81 78 74 70 68 65 62 59 57 56 54 54 53 51 50 49 49 50 54 54 51 52 55 56 62
97 103 109 113 118 125 125 129 128 127 123 119 108 102 94 88 83 80 77 73 69 65 64 63 60 57 54 51 48 46 47 48 48 46 45 46 47 48 47 48 51 56 59
103 108 112 117 124 126 129 126 127 125 120 110 103 96 91 85 79 76 73 70 64 62 61 60 58 54 51 48 45 41 40 38 39 41 42 40 40 40 44 45 48 51 56
110 113 118 122 127 128 128 126 125 120 113 107 97 92 86 80 75 72 70 66 62 57 55 54 52 50 47 45 42 39 37 35 32 32 33 36 36 37 42 42 42 47 52
114 119 123 124 127 128 127 125 121 114 108 100 93 86 80 75 71 67 65 63 59 54 53 51 48 46 44 42 39 37 34 32 31 28 27 29 32 34 36 36 38 44 44
121 122 124 123 124 126 124 120 116 109 101 94 87 81 76 71 67 63 61 59 57 54 52 48 44 42 40 38 36 34 30 29 28 27 26 26 26 29 32 34 37 37 36
123 124 123 124 124 124 121 116 110 102 95 88 81 76 71 67 62 59 57 55 56 55 52 47 41 38 36 34 32 30 27 25 24 23 23 24 23 24 26 29 31 33 34
123 121 121 124 123 120 116 111 103 97 90 83 76 70 66 62 59 57 54 53 54 53 49 44 38 36 34 31 29 26 24 22 21 19 18 20 21 21 24 26 29 31 34
122 121 123 122 119 116 112 104 98 91 84 76 70 66 62 58 56 55 53 52 51 48 44 41 38 34 31 29 26 23 21 20 18 16 16 17 19 21 23 24 26 28 30
123 121 119 117 115 111 105 99 91 84 76 70 66 64 59 56 54 53 53 50 46 43 40 38 36 33 31 28 24 21 19 18 17 15 15 16 17 19 20 22 24 26 27
121 118 115 113 110 104 99 92 85 77 72 67 64 60 57 54 52 51 50 47 43 40 37 36 35 32 29 27 24 20 18 16 16 15 15 15 15 17 19 21 22 23 24
120 116 112 108 103 98 92 86 77 72 69 65 61 58 54 52 51 50 47 43 40 38 36 35 34 31 28 26 24 21 18 16 14 15 15 15 15 16 18 20 21 21 22
116 111 108 102 97 92 86 79 72 68 66 63 59 55 52 51 50 47 43 40 38 36 35 35 33 30 27 25 23 21 19 17 15 15 15 15 16 16 17 18 20 21 23
111 107 102 97 91 86 80 72 69 65 61 58 57 53 51 50 47 43 40 38 37 36 35 34 32 30 27 24 23 21 20 18 17 17 16 16 17 17 18 19 20 20 21
106 100 95 90 84 81 74 70 67 63 59 55 53 50 49 48 44 40 38 38 37 36 35 33 31 30 28 25 23 21 20 20 19 19 19 19 19 19 20 21 21 21 22
100 94 89 84 79 74 70 67 65 60 57 53 50 48 47 44 42 39 37 37 36 36 35 33 30 29 29 27 24 22 21 20 20 20 21 21 21 21 22 23 23 24 25
92 86 83 79 73 69 68 65 61 58 55 51 49 47 45 42 40 38 37 36 34 32 33 34 32 30 29 27 26 23 21 21 21 21 21 23 24 24 25 25 26 27 28
85 80 78 74 69 66 64 61 59 55 53 51 48 46 43 41 39 38 37 35 34 32 30 31 32 30 29 28 27 26 24 22 22 23 22 23 25 26 27 27 27 29 30
80 76 73 69 66 64 61 59 56 54 53 51 47 44 42 40 39 38 36 35 34 33 31 30 31 31 28 27 27 27 26 24 23 23 24 24 24 26 28 29 29 30 30
75 72 69 65 63 61 58 56 54 53 52 50 46 43 41 38 37 37 36 35 35 33 32 30 29 30 29 27 25 26 27 27 24 24 25 25 26 26 27 29 31 32 32
71 67 65 63 60 58 56 54 53 51 51 49 46 43 40 38 36 36 36 36 35 34 32 30 28 28 29 28 26 24 25 27 26 25 25 26 27 27 27 28 29 31 33
67 65 62 60 58 54 53 53 52 51 50 49 46 42 40 38 37 36 35 35 35 34 32 30 28 27 28 28 27 25 24 25 27 26 26 26 26 27 28 28 29 30 31
Wind_Direction
302 303 303 303 304 304 304 306 307 308 309 309 309 310 310 308 308 306 303 302 301 301 301 300 298 296 294 292 289 286 284 281 275 273 269 266 262 258 254 251 250 247 246
305 304 304 305 307 310 311 311 313 315 315 315 314 313 312 312 310 307 305 304 303 303 302 300 298 295 293 292 289 287 285 281 275 270 269 266 262 259 255 250 248 246 243
308 309 310 313 315 315 317 319 319 318 318 317 316 316 314 313 311 309 307 306 305 304 302 300 298 297 295 293 291 287 284 280 276 270 268 266 263 258 256 253 246 245 243
315 316 317 318 318 318 320 321 319 319 319 318 317 317 317 315 313 311 309 307 306 305 303 301 300 300 299 297 294 291 288 284 279 273 266 266 264 259 254 253 249 243 243
318 319 319 319 320 320 321 320 319 320 319 318 319 319 318 316 315 313 311 310 309 308 305 303 303 301 298 295 292 290 287 283 279 274 268 263 262 260 255 252 249 242 240
319 319 319 320 319 320 319 320 319 320 320 321 320 320 318 316 315 313 311 310 309 309 307 306 305 304 301 299 295 290 285 282 277 274 270 265 260 258 255 251 246 241 237
318 319 318 319 319 319 319 320 320 320 322 321 322 320 318 317 316 313 312 311 311 312 310 309 309 308 305 302 299 294 289 283 278 272 269 266 260 253 250 247 245 242 239
318 318 319 318 319 319 320 319 321 322 322 322 322 320 318 317 316 314 312 312 314 313 311 310 309 308 305 302 300 296 293 290 285 276 270 264 258 249 245 242 242 241 239
318 318 318 319 318 319 319 320 321 323 322 323 321 319 317 317 315 314 313 314 314 315 314 313 312 309 308 305 303 301 295 291 287 282 273 265 257 250 246 244 239 237 239
319 318 319 319 319 320 321 321 323 323 323 322 320 319 317 317 315 315 315 315 316 317 315 314 313 311 309 306 304 303 296 290 286 282 275 266 258 252 247 241 239 241 238
318 319 320 319 320 320 321 321 322 323 322 320 319 318 317 316 315 315 315 316 316 317 316 316 317 314 312 308 305 303 296 289 283 278 273 265 256 249 243 240 238 236 234
319 319 319 320 320 320 321 322 323 323 321 320 318 317 317 316 316 316 316 317 317 317 315 316 318 317 314 310 307 300 294 288 281 276 270 263 253 245 240 237 234 233 233
319 319 320 320 320 320 321 323 323 321 320 319 318 318 317 317 317 316 317 319 317 316 316 316 318 317 314 310 306 300 295 287 278 273 265 257 250 243 239 235 234 234 235
320 319 319 320 320 320 321 322 322 320 320 320 320 319 317 317 317 317 319 319 318 316 316 316 317 316 314 311 307 301 294 286 276 270 263 255 250 243 239 236 233 233 232
320 319 319 319 320 320 321 321 321 321 320 320 320 318 318 318 318 319 320 319 319 318 317 317 317 317 314 310 306 302 293 286 277 266 259 253 250 243 237 234 231 231 231
319 319 319 319 319 320 321 320 321 321 320 320 319 318 318 318 318 320 320 320 320 320 318 318 317 317 313 309 305 300 293 283 274 267 258 252 245 242 239 236 232 227 226
318 318 318 318 319 319 320 319 321 321 320 320 319 319 318 319 320 321 320 320 320 320 321 319 319 316 314 308 304 298 292 282 271 265 260 252 246 241 239 238 238 232 227
316 317 317 317 318 319 319 320 321 321 321 319 318 318 318 320 321 320 320 321 321 321 321 319 318 317 315 310 303 297 291 283 273 264 260 255 248 243 238 237 234 232 233
316 316 316 316 318 318 319 320 321 321 320 319 317 317 318 319 319 319 321 321 321 320 320 318 317 315 313 310 304 296 289 284 275 265 258 254 250 246 243 238 238 237 237
315 315 315 317 318 318 319 321 321 321 320 318 317 317 318 318 317 318 320 321 320 318 318 317 316 314 312 309 303 295 288 282 278 268 260 254 251 250 247 244 241 239 240
314 315 316 317 317 318 319 320 321 321 319 317 317 317 318 318 316 318 319 320 318 316 316 315 317 315 311 307 303 299 290 283 277 272 263 257 251 250 250 247 245 243 241
313 315 315 316 316 318 319 319 320 320 317 316 316 317 318 317 316 317 318 318 319 319 317 314 313 314 312 308 301 297 292 284 277 272 268 260 255 251 249 248 247 246 244
314 315 314 316 316 317 317 318 319 319 317 316 316 317 317 317 316 317 317 318 319 318 318 316 312 312 312 308 301 295 290 286 279 273 269 265 259 254 252 249 247 247 247
313 313 315 316 316 316 316 317 317 318 317 316 316 316 316 315 315 314 315 317 318 318 318 316 312 310 311 308 302 294 288 287 282 274 270 266 262 259 255 253 251 248 246
312 314 315 316 316 315 316 316 316 316 317 316 316 315 314 313 313 313 313 315 316 317 317 316 312 309 308 307 303 296 288 285 283 279 272 267 265 261 257 255 253 252 251
312 314 315 316 316 316 316 315 314 315 315 316 316 315 314 313 312 312 312 312 313 315 315 315 314 308 306 305 302 297 290 284 282 281 277 272 267 263 261 258 255 253 252